Regional Weather Roundup
Issued by NWS

Home | Current Version | Previous Version | Text Only | Print | Product List | Glossary On
Versions: 1 2 3 4 5 6 7 8 9 10 11 12 13 14 15 16 17 18 19 20 21 22 23 24 25 26 27 28 29 30 31 32 33 34 35 36 37 38 39 40 41 42 43 44 45 46 47 48 49 50
000
ASUS44 KMEG 161110
RWRTN
TENNESSEE HOURLY STATE WEATHER ROUNDUP
NATIONAL WEATHER SERVICE MEMPHIS TN
600 AM CDT TUE SEP 16 2014

TNZ002-004-019-021-049-052-054-088>092-161200-
WEST TENNESSEE

CITY           SKY/WX    TMP DP  RH WIND       PRES   REMARKS
MEMPHIS INTL   PTCLDY    69  64  84 CALM      30.11R
NWS MEMPHIS      N/A     66 N/A N/A MISG        N/A
JACKSON        PTCLDY    62  60  93 CALM      30.11S
DYERSBURG      CLOUDY    66  57  72 NE7       30.12S
UNION CITY     CLOUDY    64  64 100 N7        30.12S
PARIS          CLOUDY    64  63  94 N3        30.13R
HUNTINGDON     MOCLDY    63  62  96 N3        30.12R
LEXINGTON        N/A     61  61 100 CALM      30.10S VSB 1/2
SAVANNAH       CLEAR     63  63 100 CALM      30.12R
$$

TNZ008-025-027-028-033-062-065-066-161200-
NORTH MIDDLE TENNESSEE

CITY           SKY/WX    TMP DP  RH WIND       PRES   REMARKS
NASHVILLE      CLOUDY    67  64  90 CALM      30.11R
DICKSON        MOCLDY    66  63  88 NW3       30.11R
PORTLAND       MOCLDY    64  63  94 W3        30.10R
CLARKSVILLE    CLOUDY    67  64  90 NW6       30.11R
LEBANON        CLOUDY    67  64  90 CALM      30.09R
SMYRNA         MOCLDY    63  63 100 CALM      30.12R
MURFREESBORO   PTCLDY    65  63  93 CALM      30.11R
COOKEVILLE     CLOUDY    64  64 100 CALM      30.11S
LIVINGSTON     CLOUDY    64  63  97 CALM      30.12S
GALLATIN       CLOUDY    66  66 100 CALM      30.11R
CROSSVILLE     MOCLDY    67  61  81 SW3       30.15R
$$

TNZ061-075-076-078-094-096-097-161200-
SOUTH MIDDLE TENNESSEE

CITY           SKY/WX    TMP DP  RH WIND       PRES   REMARKS
LEWISBURG      MOCLDY    62  61  97 CALM      30.12R
FAYETTEVILLE   CLEAR     63  63 100 MISG      30.13R
TULLAHOMA      CLEAR     63  61  94 CALM      30.14R
WINCHESTER     CLOUDY    64  64 100 CALM      30.13S VSB 0
MCMINNVILLE    CLOUDY    64  64 100 CALM      30.13R
COLUMBIA       CLEAR     63  63 100 CALM      30.10S
SHELBYVILLE    PTCLDY    63  63 100 CALM      30.13R
$$

TNZ017-018-042-046-047-161200-
NORTHEAST TENNESSEE

CITY           SKY/WX    TMP DP  RH WIND       PRES   REMARKS
TRI CITIES     CLOUDY    66  63  90 CALM      30.11F
ELIZABETHTON   CLOUDY    61  61 100 CALM      30.13R
$$

TNZ012-013-036-069-073-074-161200-
CENTRAL EAST TENNESSEE

CITY           SKY/WX    TMP DP  RH WIND       PRES   REMARKS
KNOXVILLE      CLOUDY    70  69  97 SW8       30.10R
OAK RIDGE      CLOUDY    70  68  93 VRB5      30.12R
GATLINBURG     CLOUDY    66  64  94 CALM      30.11R
MORRISTOWN     CLOUDY    68  68 100 W7        30.12S
$$

TNZ083-085-099-161200-
SOUTHEAST TENNESSEE

CITY           SKY/WX    TMP DP  RH WIND       PRES   REMARKS
CHATTANOOGA    FOG       71  69  93 CALM      30.11R VSB 1/4
$$

SKY/WX REPORTED AS FAIR MEANS FEW OR NO CLOUDS BELOW
12 THOUSAND FEET.



USA.gov is the U.S. government's official web portal to all federal, state and local government web resources and services.